Wind_Speed
26 27 27 28 28 29 29 29 29 28 28 28 29 30 30 31 33 34 34 34 34 34 34 34 35 36 37 38 38 38 38 38 38 39 39 40 41 42 43 43 44 45 45 46
27 27 28 28 28 29 29 30 30 29 28 27 28 29 29 30 31 32 32 33 34 35 35 35 35 36 37 37 37 37 36 36 37 38 38 39 40 41 41 42 43 43 43 43
26 27 28 29 27 28 29 28 29 29 28 28 29 29 28 29 31 31 31 32 34 35 35 35 35 35 35 36 36 37 37 37 37 38 38 39 40 40 41 41 42 42 42 42
25 25 28 27 27 27 28 28 28 28 28 28 29 30 30 30 30 31 31 31 32 33 34 34 34 34 34 35 35 36 36 37 38 39 39 39 39 39 40 40 40 41 42 42
25 25 25 25 25 25 26 27 27 27 27 28 29 30 30 30 30 30 30 31 31 32 32 33 34 34 34 34 35 35 36 37 37 38 38 38 38 39 39 39 40 40 41 41
24 25 25 24 24 25 26 27 27 27 28 29 30 30 29 30 30 30 30 31 32 32 32 32 33 34 35 35 35 36 36 36 37 37 37 38 38 38 38 38 39 40 40 40
24 25 25 24 24 25 26 26 27 28 29 29 30 30 30 31 31 31 31 31 32 32 32 33 33 34 34 34 35 35 35 36 36 37 37 37 36 37 37 37 37 38 38 38
24 25 23 23 24 25 26 26 27 28 29 29 29 30 30 31 31 31 31 32 32 32 32 32 33 33 33 33 34 34 34 35 35 36 36 35 35 35 35 35 36 37 37 37
23 24 24 24 24 24 24 25 26 26 27 28 29 29 30 30 31 31 31 32 32 32 31 31 32 31 31 31 32 32 33 34 34 34 34 34 35 35 34 34 35 35 35 35
23 23 24 24 24 24 25 25 25 25 26 26 27 27 28 29 30 31 31 31 31 31 31 31 31 31 31 31 32 32 32 33 33 33 34 34 33 33 33 33 33 33 33 33
23 23 24 24 25 26 26 25 25 25 26 25 26 26 27 27 28 29 29 30 30 31 31 31 31 30 30 31 31 31 32 32 32 32 33 33 33 32 32 32 32 32 32 32
22 23 24 24 25 26 25 25 25 26 26 26 26 27 27 27 28 28 29 29 30 30 31 31 30 30 30 31 30 31 31 31 31 31 32 32 31 31 31 31 31 31 31 31
22 23 24 24 25 25 25 25 25 25 26 26 26 27 27 27 28 28 29 29 30 30 30 30 30 30 30 31 31 31 31 31 31 31 31 31 30 30 30 30 30 30 30 29
23 23 23 23 24 24 24 24 25 25 25 25 25 26 27 27 28 28 29 29 29 29 29 29 30 31 31 31 31 31 31 31 31 30 30 30 29 29 29 29 29 29 29 28
23 23 23 23 23 23 24 24 24 25 25 24 25 26 26 27 28 28 29 29 29 29 29 30 30 30 31 30 30 30 30 30 30 29 29 29 28 28 28 28 28 28 28 28
21 22 22 22 23 23 24 24 24 24 24 24 24 25 26 27 27 28 28 28 28 29 29 29 29 29 29 29 29 29 29 29 28 28 28 28 27 27 27 27 27 27 27 28
21 21 22 22 22 23 23 23 23 24 24 24 24 25 25 26 26 26 26 26 27 27 27 27 27 27 27 27 27 27 27 26 26 26 26 26 26 26 26 26 26 26 27 27
20 20 21 21 21 22 22 23 23 23 24 24 24 25 25 25 25 25 25 25 25 26 26 26 26 26 26 26 25 24 24 25 25 25 25 25 25 25 25 25 25 25 25 25
19 19 20 20 20 21 21 21 21 22 22 23 24 25 25 25 25 24 24 24 24 24 24 24 24 24 24 23 23 23 24 24 24 24 24 24 24 24 24 23 23 23 23 24
18 18 18 19 19 19 19 20 20 21 22 22 23 23 23 23 24 23 23 23 23 22 22 22 22 22 22 22 22 22 22 22 22 23 23 23 23 23 23 23 23 23 23 23
17 17 17 18 18 18 19 19 20 20 20 20 21 21 22 22 22 22 21 21 21 21 21 22 22 22 22 22 22 22 22 22 22 22 22 22 22 22 22 22 22 22 22 22
16 17 17 18 18 18 19 19 20 20 20 20 21 21 21 22 21 21 21 20 20 21 21 21 22 22 22 21 21 21 22 22 22 22 21 21 21 21 21 21 21 22 22 22
17 17 18 18 18 19 19 20 20 21 21 21 21 22 22 22 21 21 20 20 20 21 21 21 21 20 20 20 20 21 21 21 21 20 20 20 20 20 20 21 21 21 21 21
18 18 18 18 19 19 20 21 21 21 21 22 22 22 22 21 21 21 20 20 20 20 20 20 19 19 19 19 19 19 19 19 19 19 20 20 20 20 21 21 21 21 21 21
19 19 19 19 19 20 20 20 21 21 21 22 22 22 21 21 20 20 20 20 20 20 19 19 19 18 18 18 18 18 18 18 19 19 20 20 20 20 21 21 21 21 21 20
19 19 19 20 20 20 20 20 20 21 21 21 21 21 21 20 20 20 19 19 19 19 19 19 19 18 18 19 18 18 19 19 20 20 20 20 20 20 21 21 21 20 20 19
19 19 20 20 20 20 20 20 20 21 21 21 20 21 21 20 20 20 19 19 19 18 19 19 19 19 19 19 19 19 20 20 21 20 20 20 20 20 20 19 19 18 18 18
Wind_Direction
253 253 251 250 251 251 253 256 257 259 262 262 264 265 265 265 266 265 264 263 263 262 261 262 263 263 264 264 265 266 267 266 266 267 268 269 269 269 270 270 271 272 273 273
254 253 254 254 254 253 255 258 259 259 261 264 265 266 265 265 266 265 265 263 263 263 264 265 265 266 265 264 264 265 266 266 266 268 269 269 270 270 271 271 272 273 274 274
255 255 257 256 257 258 258 260 261 261 262 263 264 266 267 266 266 266 266 266 266 265 266 267 267 267 266 265 264 265 266 267 267 267 268 270 271 271 271 272 273 273 274 275
257 257 259 261 259 260 261 262 263 264 263 263 264 266 266 266 267 267 267 267 267 267 267 267 266 266 266 266 265 265 266 268 268 268 269 270 272 272 272 272 273 274 275 276
256 258 261 261 262 263 263 263 264 265 266 266 266 266 266 266 267 268 268 268 268 269 269 268 267 267 267 266 266 266 268 269 269 269 269 270 271 272 272 272 273 275 276 277
257 259 262 263 264 265 265 266 267 268 269 269 267 267 266 265 267 269 269 270 270 271 271 270 269 269 269 268 268 268 269 270 269 269 270 271 271 271 272 273 274 276 277 278
261 261 263 266 268 268 268 270 269 269 269 269 268 267 266 266 267 269 270 271 272 272 272 272 271 270 269 269 269 269 269 270 270 270 270 271 272 272 272 274 275 277 278 279
263 263 266 269 272 272 273 271 271 270 270 269 267 267 266 267 268 269 270 271 272 272 273 272 272 271 270 269 269 269 270 270 270 270 270 270 271 272 272 273 275 277 279 280
263 265 268 271 273 274 274 274 274 272 271 270 269 268 268 268 268 269 270 271 271 272 272 272 272 271 271 271 271 271 270 270 271 271 270 271 271 272 273 274 276 278 279 279
266 267 269 271 273 275 276 277 276 274 274 273 271 270 271 271 270 270 271 271 271 271 271 272 272 272 272 272 272 272 272 272 271 271 271 272 271 272 274 276 277 278 279 279
269 270 270 271 273 275 277 277 276 275 275 275 274 274 274 273 272 271 271 271 271 271 271 271 271 272 273 274 273 272 272 273 272 272 273 272 272 273 274 276 277 278 278 278
270 271 273 274 274 275 277 277 276 275 275 275 276 276 275 274 273 272 272 271 271 271 272 271 272 272 273 274 274 273 273 273 273 273 273 273 273 274 275 276 277 279 279 279
273 273 273 274 274 276 277 277 277 277 277 277 277 278 276 274 274 273 272 271 270 271 271 271 272 273 274 275 274 273 273 273 272 273 273 273 273 274 276 277 278 279 280 280
275 275 273 273 273 274 275 276 277 278 278 279 279 279 278 276 274 274 273 272 272 272 273 273 273 274 274 274 274 273 272 272 272 273 273 272 272 274 276 277 278 279 279 279
277 275 274 274 274 274 275 276 278 279 279 280 281 281 280 278 277 276 275 274 273 273 274 274 274 274 274 274 273 272 271 271 271 271 271 271 272 274 276 277 278 278 278 279
278 278 278 278 277 276 277 278 278 278 278 280 282 282 281 280 279 278 277 276 274 274 273 273 274 274 274 274 273 272 271 271 270 270 269 270 271 273 275 276 277 279 279 280
279 280 281 280 279 278 278 279 278 278 279 281 283 285 284 283 282 281 279 277 275 274 274 273 273 274 275 274 274 272 271 270 269 268 269 269 271 274 275 275 277 278 280 281
281 282 283 283 283 282 283 282 281 281 282 283 285 286 285 284 283 282 279 277 276 275 274 274 275 275 275 274 273 272 271 270 269 267 267 269 271 273 275 277 279 280 280 281
283 283 284 284 285 284 283 282 283 283 284 285 285 286 286 284 283 282 280 279 277 275 274 275 276 275 275 274 272 272 271 270 269 268 268 269 271 273 275 278 280 281 281 282
284 284 285 286 286 285 283 284 286 286 286 287 288 288 288 286 285 283 281 280 278 275 274 274 276 276 274 273 273 272 271 270 269 270 270 271 273 274 276 279 280 281 282 283
284 286 287 287 287 286 286 288 289 289 289 290 290 290 291 290 287 285 282 280 278 275 274 275 276 276 275 274 272 271 270 270 270 271 272 273 274 275 276 279 281 282 283 285
285 287 289 289 289 288 289 289 290 290 290 291 292 292 292 292 289 285 283 281 278 276 276 276 276 276 274 272 271 270 271 271 270 270 271 272 274 276 277 279 281 283 284 285
287 289 291 291 291 290 290 290 291 291 291 292 293 294 293 292 290 286 284 281 279 278 278 277 276 274 273 271 270 270 271 270 269 269 270 272 274 276 278 281 284 285 286 286
289 291 291 292 293 292 291 291 292 292 292 293 294 294 293 293 291 288 284 282 279 279 278 276 274 273 272 272 271 270 270 269 269 270 272 274 275 277 280 282 284 285 286 287
291 293 293 293 294 295 295 293 293 292 293 294 295 295 294 293 292 290 287 284 281 280 278 276 274 273 272 271 268 268 269 271 272 273 274 275 277 279 280 282 283 284 285 285
294 295 295 295 296 296 296 295 294 294 295 295 295 296 296 294 293 290 287 283 280 278 276 275 273 271 269 269 269 269 270 272 274 276 277 277 279 280 281 282 283 283 283 283
297 297 297 298 298 298 298 298 298 297 297 298 297 297 297 297 295 291 286 282 280 278 277 274 272 269 268 269 270 271 272 274 276 277 276 277 279 280 281 282 281 281 281 282
Height
5593 5594 5595 5596 5598 5599 5600 5601 5603 5605 5605 5606 5606 5606 5606 5606 5606 5607 5607 5608 5608 5608 5609 5609 5609 5609 5609 5609 5609 5609 5609 5609 5609 5608 5608 5608 5608 5607 5607 5606 5605 5604 5603 5602
5585 5586 5587 5589 5590 5591 5592 5593 5594 5596 5597 5598 5597 5597 5597 5597 5597 5597 5598 5598 5598 5598 5599 5599 5599 5599 5599 5598 5598 5598 5598 5598 5598 5598 5597 5597 5597 5596 5595 5594 5593 5592 5591 5590
5579 5579 5579 5582 5584 5584 5585 5586 5587 5588 5590 5589 5589 5589 5588 5588 5588 5588 5588 5589 5589 5589 5589 5589 5589 5588 5588 5588 5588 5588 5588 5588 5587 5587 5587 5586 5586 5585 5584 5583 5582 5580 5580 5579
5571 5573 5573 5578 5577 5577 5578 5579 5579 5580 5580 5580 5580 5580 5580 5579 5580 5580 5580 5580 5579 5579 5579 5579 5578 5578 5578 5578 5577 5577 5577 5577 5576 5576 5576 5575 5574 5573 5572 5571 5570 5569 5568 5567
5564 5564 5566 5569 5570 5570 5570 5571 5572 5572 5572 5572 5571 5571 5572 5571 5571 5571 5570 5570 5570 5570 5569 5569 5568 5568 5568 5567 5567 5567 5566 5566 5565 5565 5565 5564 5563 5562 5561 5560 5559 5558 5557 5555
5557 5558 5559 5564 5563 5562 5563 5564 5565 5564 5563 5563 5562 5563 5565 5563 5562 5562 5561 5561 5560 5560 5559 5559 5558 5558 5558 5557 5557 5556 5556 5555 5555 5554 5553 5553 5552 5551 5550 5549 5548 5547 5545 5544
5551 5551 5552 5555 5555 5554 5556 5557 5556 5555 5554 5554 5554 5555 5555 5554 5553 5553 5552 5552 5551 5550 5549 5549 5548 5548 5547 5547 5546 5546 5545 5545 5544 5543 5543 5542 5541 5540 5539 5539 5537 5536 5535 5533
5544 5544 5548 5547 5547 5547 5547 5546 5546 5545 5545 5545 5545 5544 5544 5544 5544 5543 5543 5542 5541 5541 5540 5539 5538 5537 5537 5536 5536 5535 5535 5534 5533 5533 5532 5532 5531 5530 5529 5528 5527 5525 5524 5522
5538 5540 5540 5540 5539 5539 5538 5538 5537 5536 5536 5535 5535 5535 5535 5534 5534 5534 5533 5532 5532 5531 5530 5529 5528 5527 5527 5526 5525 5525 5524 5524 5523 5522 5522 5521 5521 5520 5519 5518 5517 5515 5514 5512
5531 5532 5532 5532 5531 5531 5530 5529 5528 5528 5527 5526 5526 5526 5525 5525 5524 5524 5523 5523 5522 5521 5521 5520 5519 5518 5517 5516 5515 5515 5514 5513 5513 5512 5511 5511 5510 5510 5509 5508 5506 5505 5504 5502
5524 5525 5524 5524 5523 5523 5522 5521 5520 5519 5519 5518 5518 5517 5516 5515 5514 5514 5514 5513 5513 5512 5511 5510 5509 5508 5508 5507 5506 5505 5504 5503 5503 5502 5501 5500 5500 5500 5499 5498 5497 5496 5494 5493
5518 5517 5517 5516 5515 5514 5514 5513 5512 5511 5511 5510 5509 5508 5507 5506 5505 5505 5504 5504 5503 5502 5501 5501 5500 5499 5498 5497 5496 5495 5495 5494 5493 5492 5491 5491 5491 5490 5489 5489 5487 5486 5485 5483
5510 5509 5508 5508 5507 5506 5505 5504 5504 5503 5502 5502 5501 5499 5498 5497 5496 5495 5494 5494 5493 5492 5492 5491 5490 5489 5488 5487 5487 5486 5485 5484 5484 5483 5482 5482 5481 5481 5480 5480 5478 5477 5476 5475
5502 5501 5500 5500 5499 5498 5497 5496 5496 5495 5494 5493 5492 5491 5489 5488 5487 5486 5485 5484 5484 5483 5482 5481 5481 5480 5479 5478 5477 5476 5475 5475 5474 5474 5473 5473 5472 5472 5471 5471 5470 5468 5467 5466
5494 5493 5493 5492 5491 5490 5489 5489 5488 5487 5486 5485 5483 5482 5480 5479 5478 5477 5476 5475 5474 5473 5473 5472 5471 5470 5469 5468 5467 5466 5466 5465 5465 5465 5464 5464 5464 5463 5463 5462 5461 5460 5459 5458
5487 5486 5485 5484 5483 5482 5482 5481 5480 5479 5478 5477 5475 5474 5472 5470 5469 5467 5466 5465 5465 5464 5463 5463 5462 5460 5459 5458 5458 5457 5457 5456 5456 5456 5456 5456 5455 5455 5455 5454 5453 5452 5451 5450
5480 5479 5478 5477 5476 5475 5474 5473 5472 5471 5470 5469 5468 5466 5464 5462 5460 5458 5457 5456 5456 5455 5454 5453 5453 5452 5450 5450 5449 5448 5448 5448 5447 5448 5448 5448 5447 5447 5447 5446 5445 5444 5443 5442
5473 5472 5471 5470 5469 5468 5467 5466 5465 5464 5463 5461 5460 5458 5456 5454 5452 5450 5449 5448 5447 5446 5445 5445 5444 5443 5442 5441 5441 5440 5440 5440 5440 5440 5440 5440 5440 5439 5439 5438 5437 5437 5436 5434
5466 5465 5464 5463 5462 5461 5460 5459 5458 5456 5455 5454 5452 5450 5448 5446 5444 5443 5441 5440 5439 5439 5438 5437 5436 5435 5435 5434 5433 5433 5433 5433 5432 5432 5433 5433 5432 5432 5431 5431 5430 5429 5428 5427
5460 5459 5458 5457 5456 5454 5453 5452 5451 5449 5448 5446 5444 5442 5441 5439 5437 5435 5434 5433 5432 5431 5430 5430 5429 5428 5427 5427 5426 5426 5426 5426 5425 5425 5426 5425 5425 5425 5424 5424 5423 5422 5421 5420
5454 5453 5452 5451 5450 5448 5447 5446 5444 5443 5441 5439 5438 5436 5434 5432 5430 5428 5427 5426 5425 5424 5423 5423 5422 5421 5420 5420 5419 5419 5419 5419 5419 5419 5419 5418 5418 5418 5417 5417 5416 5415 5414 5413
5448 5447 5446 5445 5444 5442 5441 5439 5438 5436 5434 5433 5431 5429 5427 5425 5423 5421 5420 5419 5418 5417 5416 5415 5414 5414 5413 5413 5413 5412 5412 5412 5412 5412 5412 5412 5411 5411 5410 5410 5409 5408 5407 5406
5443 5441 5440 5439 5437 5436 5434 5433 5431 5429 5428 5426 5424 5422 5420 5418 5416 5415 5414 5412 5411 5410 5409 5408 5407 5407 5406 5406 5406 5406 5406 5406 5405 5405 5405 5405 5405 5404 5404 5403 5402 5401 5400 5399
5437 5436 5434 5433 5431 5430 5428 5426 5424 5423 5421 5419 5417 5415 5413 5412 5410 5408 5407 5405 5404 5404 5403 5402 5401 5401 5400 5400 5400 5399 5399 5399 5399 5399 5399 5399 5398 5398 5397 5396 5395 5394 5393 5392
5431 5430 5428 5427 5425 5423 5421 5420 5418 5416 5414 5412 5410 5408 5406 5405 5403 5401 5400 5399 5398 5397 5396 5395 5395 5394 5394 5394 5394 5393 5393 5393 5393 5393 5392 5392 5391 5391 5390 5389 5388 5387 5386 5385
5426 5424 5423 5421 5419 5417 5415 5413 5411 5409 5408 5406 5404 5402 5400 5398 5396 5395 5393 5392 5391 5390 5390 5389 5389 5388 5388 5388 5388 5387 5387 5387 5387 5386 5386 5385 5385 5384 5383 5382 5381 5380 5379 5378
5420 5418 5416 5415 5413 5411 5409 5407 5405 5403 5401 5399 5397 5395 5393 5391 5390 5388 5387 5386 5385 5384 5383 5383 5382 5382 5382 5382 5381 5381 5381 5380 5380 5379 5379 5378 5378 5377 5376 5375 5375 5374 5373 5372